AirNav   ProFlight Series 2 Aviation Headset
 
 689 users online  

24M Wilderness Airpark
Kent City, Michigan, USA

GOING TO KENT CITY?


FAA INFORMATION EFFECTIVE 16 JULY 2020

Location

FAA Identifier: 24M
Lat/Long: 43-14-41.0870N 085-42-42.1520W
43-14.684783N 085-42.702533W
43.2447464,-85.7117089
(estimated)
Elevation: 785 ft. / 239 m (estimated)
Variation: 04W (1990)
From city: 3 miles NE of KENT CITY, MI
Time zone: UTC -4 (UTC -5 during Standard Time)
Zip code: 49330

Airport Operations

Airport use: Open to the public
Activation date: 11/1993
Control tower: no
ARTCC: CHICAGO CENTER
FSS: LANSING FLIGHT SERVICE STATION
NOTAMs facility: LAN (NOTAM-D service available)
Attendance: IREG
Wind indicator: yes
Segmented circle: no

Airport Communications

CTAF: 122.9
WX AWOS-3 at FFX (17 nm NW): 118.775 (231-928-0715)

Nearby radio navigation aids

VOR radial/distance  VOR name  Freq  Var
MKGr073/15.0MUSKEGON VORTAC115.2001W
HICr180/19.8WHITE CLOUD VOR/DME117.6001W
VIOr345/29.1VICTORY VOR/DME115.9504W

Airport Services

Runway Information

Runway 9/27

Dimensions: 2543 x 100 ft. / 775 x 30 m
Surface: turf, in good condition
Runway edge markings: RWY 09/27 & DSPLD THLSDS MKD WITH 3 FT YELLOW CONES.
RUNWAY 9  RUNWAY 27
Traffic pattern: leftleft
Displaced threshold: 537 ft.335 ft.
Obstructions: 40 ft. trees, 60 ft. left of centerline
APCH RATIO 10:1 AT DSPLCD THLD BASED ON 60 FT TREES 609 FT DSTC123 FT L, 20:1 BASED ON STRAIGHT OUT.
15 ft. road, 10 ft. from runway
APCH RATIO 18:1 AT DSPLCD THLD BASED ON 39 FT TREES 710 FT DSTC 20 FT R.

Airport Ownership and Management from official FAA records

Ownership: Privately-owned
Owner: WILDERNESS AIRPARK ASSOCIATION
C/O RONALD FRITZ, 15401 SPARTA AVE
KENT CITY, MI 49330-9763
Phone 616-678-5012
Manager: RONALD FRITZ
15401 SPARTA AVE., 15387 SPARTA AVE.
KENT CITY, MI 49330-9763
Phone 616-678-5012
AMGR LIVES ON ARPT.

Airport Operational Statistics

Aircraft based on the field: 5
Single engine airplanes: 5
    
Aircraft operations: avg 67/month *
50% transient general aviation
50% local general aviation
* for 12-month period ending 31 December 2018

Additional Remarks

NO SNOW REMOVAL. ARPT CLOSED NOV-APRIL & WHEN SNOW COVERED EXCEPT FOR SKI EQUIPPED ACFT.
FOR CD CTC GREAT LAKES APCH AT 269-459-3345, WHEN APCH CLSD CTC CHICAGO ARTCC AT 630-906-8921.
BIRDS AND DEER ON AND INVOF RWY.
BIRDS AND DEER ON AND INVOF RWY.

Instrument Procedures

There are no published instrument procedures at 24M.

Some nearby airports with instrument procedures:

8D4 - Paul C Miller-Sparta Airport (7 nm S)
KFFX - Fremont Municipal Airport (17 nm NW)
6D6 - Greenville Municipal Airport (21 nm E)
13C - Lakeview Airport-Griffith Field (23 nm NE)
KGRR - Gerald R Ford International Airport (23 nm S)
 
Loc | Ops | Rwys | IFR | FBO | Links
Com | Nav | Svcs | Stats | Notes
Area around 24M (Wilderness Airpark)
 
Road maps at: MapQuest Bing Google
 
Aerial photo
WARNING: Photo may not be current or correct
Aerial photo of 24M (Wilderness Airpark)
Photo by Kevin Jarchow, 1st LT CAP
Grand Rapids Senior Squadron (MI-190)
Michigan Wing
U.S. Air Force Auxiliary
Photo taken 29-Dec-2009

Do you have a better or more recent aerial photo of Wilderness Airpark that you would like to share? If so, please send us your photo.

 
Sectional chart

 
Airport distance calculator
Flying to Wilderness Airpark? Find the distance to fly.

From to 24M

Sunrise and sunset
Times for 09-Aug-2020
 Local
(UTC-4)
 Zulu
(UTC)
Morning civil twilight06:1210:12
Sunrise06:4410:44
Sunset20:5300:53
Evening civil twilight21:2401:24

Current date and time
Zulu (UTC)  09-Aug-2020 04:07:15
Local (UTC-4)  09-Aug-2020 00:07:15
 
METAR
KFFX 
17nm NW 
090355Z AUTO 20003KT 10SM CLR 21/19 A3007 RMK AO2 T02080185
KMKG 
23nm W 
090355Z AUTO 20015G23KT 10SM CLR 26/19 A3007 RMK AO2 SLP178 T02560189
KGRR 
23nm S 
090353Z 20007KT 10SM CLR 23/17 A3010 RMK AO2 SLP186 LAST T02330167
KRQB 
30nm N 
090355Z AUTO 22007KT 10SM SCT120 23/19 A3007 RMK AO2 T02260185
KY70 
34nm SE 
090355Z AUTO 21007KT 10SM CLR 23/14 A3009 RMK AO2 T02250135
TAF
KMKG 
23nm W 
081946Z 0820/0918 19012G20KT P6SM VCSH BKN060 FM090000 20009KT P6SM OVC250
KGRR 
23nm S 
081740Z 0818/0918 21010KT P6SM BKN250 FM090000 20006KT P6SM SCT250
NOTAMs
Click for the latest NOTAMs
NOTAMs are issued by the DoD/FAA and will open in a separate window not controlled by AirNav.

 

 
 

Would you like to see your business listed on this page?

 If your business provides an interesting product or service to pilots, flight crews, aircraft, or users of the Wilderness Airpark, you should consider listing it here.  To start the listing process, click on the button below
 
Add a business
 

Other Pages about Wilderness Airpark

Page from the Michigan Airport Directory (PDF)
 
Update a link
 
Copyright © AirNav, LLC. All rights reserved. Privacy Policy  Contact